QPF
0.01 0.01 0.00 0.01 0.01 0.00 0.00 0.00 0.00 0.00 0.00 0.00 0.00 0.00 0.00 0.00 0.00 0.00 0.00 0.00 0.00 0.00 0.00 0.01 0.02 0.02 0.02 0.02 0.03 0.02 0.01 0.01 0.01 0.02 0.03 0.04 0.05 0.05 0.04 0.03 0.02 0.01 0.01 0.02 0.02 0.01 0.02 0.01 0.01
0.01 0.01 0.01 0.01 0.00 0.00 0.00 0.00 0.00 0.00 0.00 0.00 0.00 0.00 0.00 0.00 0.00 0.00 0.00 0.00 0.00 0.00 0.00 0.01 0.02 0.02 0.01 0.02 0.02 0.02 0.01 0.01 0.01 0.02 0.03 0.04 0.05 0.06 0.06 0.04 0.02 0.02 0.01 0.01 0.01 0.01 0.01 0.01 0.00
0.01 0.01 0.01 0.01 0.00 0.00 0.00 0.00 0.00 0.00 0.00 0.00 0.00 0.00 0.00 0.00 0.00 0.00 0.00 0.00 0.00 0.00 0.00 0.01 0.02 0.02 0.02 0.02 0.02 0.02 0.02 0.02 0.02 0.03 0.04 0.05 0.04 0.06 0.07 0.06 0.04 0.02 0.01 0.02 0.01 0.01 0.01 0.01 0.01
0.02 0.01 0.01 0.01 0.00 0.00 0.00 0.00 0.00 0.00 0.00 0.00 0.00 0.00 0.00 0.00 0.00 0.00 0.00 0.00 0.00 0.00 0.00 0.01 0.01 0.02 0.02 0.02 0.02 0.01 0.02 0.03 0.03 0.04 0.05 0.06 0.06 0.07 0.07 0.06 0.06 0.04 0.02 0.02 0.02 0.01 0.01 0.01 0.01
0.02 0.01 0.00 0.00 0.00 0.00 0.00 0.00 0.00 0.00 0.00 0.00 0.00 0.00 0.00 0.00 0.00 0.00 0.00 0.00 0.00 0.01 0.01 0.01 0.02 0.02 0.02 0.02 0.01 0.02 0.03 0.04 0.05 0.06 0.07 0.06 0.06 0.07 0.06 0.05 0.05 0.04 0.02 0.02 0.02 0.02 0.02 0.02 0.02
0.02 0.01 0.00 0.00 0.00 0.00 0.00 0.00 0.00 0.00 0.00 0.00 0.00 0.00 0.00 0.00 0.00 0.00 0.00 0.00 0.00 0.01 0.01 0.01 0.02 0.02 0.02 0.02 0.02 0.02 0.02 0.03 0.04 0.06 0.06 0.06 0.06 0.08 0.08 0.07 0.05 0.03 0.02 0.02 0.01 0.02 0.01 0.01 0.01
0.02 0.01 0.00 0.00 0.00 0.00 0.00 0.00 0.00 0.00 0.00 0.00 0.00 0.00 0.00 0.00 0.00 0.00 0.00 0.00 0.00 0.01 0.01 0.02 0.02 0.02 0.03 0.03 0.02 0.02 0.02 0.01 0.02 0.03 0.04 0.05 0.06 0.08 0.08 0.11 0.08 0.05 0.03 0.02 0.02 0.02 0.02 0.01 0.00
0.01 0.01 0.01 0.00 0.00 0.00 0.00 0.00 0.00 0.00 0.00 0.00 0.00 0.00 0.00 0.00 0.00 0.00 0.00 0.01 0.01 0.01 0.01 0.02 0.02 0.02 0.03 0.03 0.03 0.02 0.02 0.02 0.02 0.02 0.02 0.03 0.04 0.05 0.07 0.08 0.08 0.05 0.03 0.02 0.02 0.02 0.02 0.02 0.01
0.02 0.01 0.01 0.00 0.00 0.00 0.00 0.00 0.00 0.00 0.00 0.00 0.00 0.00 0.00 0.00 0.00 0.00 0.00 0.01 0.01 0.01 0.01 0.01 0.02 0.02 0.02 0.02 0.03 0.03 0.02 0.02 0.02 0.02 0.01 0.02 0.02 0.04 0.05 0.06 0.07 0.05 0.02 0.02 0.01 0.01 0.01 0.02 0.02
0.01 0.01 0.01 0.00 0.00 0.00 0.00 0.00 0.00 0.00 0.00 0.00 0.00 0.00 0.00 0.00 0.00 0.00 0.00 0.00 0.01 0.01 0.01 0.01 0.01 0.02 0.02 0.02 0.03 0.04 0.03 0.02 0.01 0.01 0.00 0.01 0.01 0.03 0.04 0.07 0.08 0.05 0.02 0.02 0.01 0.01 0.01 0.01 0.02
0.00 0.00 0.00 0.00 0.00 0.00 0.00 0.00 0.00 0.00 0.00 0.00 0.00 0.00 0.00 0.00 0.00 0.00 0.00 0.00 0.00 0.01 0.01 0.01 0.01 0.01 0.02 0.03 0.02 0.03 0.04 0.03 0.02 0.01 0.00 0.00 0.01 0.01 0.03 0.05 0.07 0.04 0.03 0.02 0.01 0.01 0.01 0.01 0.01
0.00 0.00 0.00 0.00 0.00 0.00 0.00 0.00 0.00 0.00 0.00 0.00 0.00 0.00 0.00 0.00 0.00 0.00 0.00 0.00 0.00 0.01 0.01 0.01 0.01 0.01 0.01 0.02 0.03 0.03 0.03 0.04 0.04 0.03 0.01 0.00 0.01 0.01 0.02 0.03 0.04 0.05 0.03 0.02 0.02 0.01 0.01 0.01 0.01
0.00 0.00 0.00 0.00 0.00 0.00 0.00 0.00 0.00 0.00 0.00 0.00 0.00 0.00 0.01 0.01 0.01 0.00 0.00 0.00 0.00 0.00 0.00 0.00 0.01 0.01 0.01 0.02 0.02 0.03 0.03 0.04 0.04 0.05 0.04 0.02 0.01 0.01 0.01 0.02 0.04 0.04 0.04 0.02 0.01 0.01 0.01 0.01 0.01
0.00 0.00 0.00 0.00 0.00 0.00 0.00 0.00 0.00 0.00 0.00 0.00 0.00 0.00 0.01 0.02 0.03 0.03 0.02 0.01 0.00 0.00 0.00 0.00 0.00 0.01 0.01 0.01 0.02 0.02 0.03 0.03 0.04 0.06 0.07 0.04 0.02 0.01 0.01 0.01 0.02 0.03 0.03 0.03 0.02 0.01 0.01 0.01 0.01
0.01 0.01 0.00 0.00 0.00 0.00 0.00 0.00 0.00 0.00 0.00 0.00 0.00 0.01 0.01 0.01 0.02 0.03 0.04 0.03 0.01 0.01 0.00 0.00 0.00 0.00 0.01 0.01 0.01 0.02 0.02 0.03 0.05 0.06 0.06 0.08 0.05 0.02 0.02 0.02 0.02 0.02 0.03 0.03 0.02 0.01 0.01 0.01 0.01
0.01 0.01 0.01 0.00 0.00 0.00 0.01 0.00 0.00 0.00 0.00 0.00 0.00 0.01 0.01 0.01 0.01 0.02 0.04 0.04 0.04 0.03 0.02 0.01 0.00 0.00 0.01 0.01 0.01 0.02 0.02 0.03 0.04 0.08 0.10 0.08 0.08 0.07 0.05 0.04 0.03 0.02 0.03 0.03 0.02 0.02 0.01 0.00 0.00
0.02 0.01 0.01 0.00 0.00 0.00 0.01 0.01 0.00 0.00 0.00 0.00 0.00 0.00 0.01 0.01 0.01 0.01 0.03 0.04 0.04 0.03 0.04 0.03 0.01 0.01 0.01 0.01 0.01 0.02 0.03 0.03 0.03 0.05 0.12 0.16 0.12 0.10 0.10 0.09 0.06 0.03 0.03 0.03 0.03 0.02 0.01 0.01 0.00
0.02 0.01 0.00 0.00 0.00 0.01 0.01 0.00 0.00 0.01 0.01 0.00 0.00 0.01 0.01 0.01 0.01 0.01 0.02 0.03 0.03 0.02 0.03 0.05 0.03 0.02 0.02 0.02 0.01 0.01 0.02 0.03 0.03 0.03 0.05 0.11 0.18 0.18 0.16 0.14 0.11 0.08 0.06 0.05 0.04 0.04 0.02 0.01 0.00
0.02 0.02 0.01 0.00 0.00 0.01 0.01 0.00 0.00 0.00 0.01 0.01 0.00 0.00 0.00 0.01 0.01 0.01 0.01 0.02 0.02 0.01 0.02 0.03 0.05 0.04 0.03 0.03 0.02 0.01 0.01 0.01 0.02 0.02 0.03 0.04 0.07 0.11 0.14 0.14 0.13 0.12 0.11 0.07 0.05 0.04 0.03 0.02 0.00
0.03 0.03 0.01 0.00 0.00 0.01 0.00 0.00 0.00 0.00 0.00 0.00 0.00 0.00 0.00 0.00 0.01 0.01 0.01 0.01 0.02 0.02 0.01 0.01 0.02 0.03 0.03 0.03 0.03 0.01 0.02 0.01 0.01 0.02 0.02 0.02 0.03 0.04 0.06 0.07 0.08 0.10 0.13 0.13 0.08 0.04 0.03 0.02 0.01
0.02 0.03 0.02 0.01 0.00 0.01 0.01 0.00 0.00 0.00 0.01 0.01 0.01 0.00 0.00 0.00 0.01 0.01 0.01 0.01 0.01 0.01 0.01 0.01 0.02 0.02 0.02 0.02 0.03 0.03 0.02 0.02 0.02 0.02 0.01 0.01 0.01 0.01 0.02 0.03 0.04 0.05 0.07 0.08 0.09 0.08 0.05 0.03 0.02
0.03 0.01 0.02 0.02 0.02 0.02 0.01 0.01 0.00 0.00 0.00 0.01 0.01 0.01 0.00 0.00 0.01 0.01 0.01 0.01 0.01 0.01 0.01 0.01 0.02 0.02 0.02 0.02 0.03 0.03 0.02 0.01 0.02 0.02 0.02 0.02 0.01 0.01 0.01 0.01 0.01 0.02 0.03 0.04 0.06 0.09 0.09 0.08 0.05
0.02 0.01 0.02 0.02 0.03 0.03 0.02 0.01 0.00 0.00 0.00 0.00 0.01 0.01 0.00 0.00 0.01 0.01 0.01 0.00 0.01 0.01 0.01 0.01 0.02 0.02 0.02 0.02 0.02 0.02 0.02 0.01 0.01 0.01 0.02 0.02 0.02 0.01 0.01 0.01 0.01 0.01 0.01 0.01 0.02 0.04 0.06 0.07 0.06
0.02 0.03 0.03 0.03 0.05 0.05 0.01 0.01 0.00 0.00 0.00 0.00 0.00 0.01 0.00 0.00 0.00 0.01 0.01 0.00 0.00 0.01 0.01 0.01 0.02 0.02 0.02 0.02 0.02 0.02 0.02 0.01 0.01 0.01 0.01 0.01 0.01 0.01 0.01 0.01 0.01 0.01 0.01 0.01 0.01 0.01 0.02 0.03 0.05
0.03 0.05 0.06 0.05 0.05 0.03 0.00 0.00 0.01 0.00 0.00 0.00 0.00 0.00 0.00 0.00 0.00 0.00 0.00 0.00 0.00 0.00 0.01 0.01 0.01 0.01 0.01 0.01 0.02 0.02 0.02 0.02 0.01 0.01 0.01 0.01 0.01 0.01 0.01 0.01 0.01 0.01 0.01 0.01 0.01 0.01 0.01 0.01 0.02
0.03 0.04 0.05 0.04 0.02 0.01 0.01 0.01 0.00 0.00 0.00 0.00 0.00 0.00 0.00 0.00 0.00 0.00 0.00 0.00 0.00 0.00 0.00 0.01 0.01 0.01 0.01 0.01 0.01 0.02 0.01 0.01 0.01 0.01 0.01 0.01 0.01 0.01 0.01 0.01 0.02 0.01 0.01 0.01 0.01 0.00 0.00 0.00 0.00
0.02 0.03 0.03 0.05 0.03 0.02 0.01 0.01 0.01 0.00 0.00 0.00 0.01 0.00 0.00 0.00 0.00 0.00 0.00 0.00 0.00 0.00 0.00 0.00 0.00 0.01 0.01 0.01 0.01 0.02 0.02 0.01 0.01 0.01 0.01 0.01 0.01 0.01 0.02 0.02 0.02 0.02 0.02 0.02 0.01 0.01 0.00 0.00 0.00
0.01 0.02 0.03 0.05 0.04 0.02 0.01 0.01 0.01 0.01 0.00 0.00 0.01 0.02 0.01 0.01 0.01 0.00 0.00 0.00 0.00 0.00 0.00 0.00 0.00 0.00 0.01 0.01 0.01 0.02 0.01 0.01 0.01 0.01 0.01 0.01 0.01 0.01 0.01 0.02 0.02 0.02 0.03 0.03 0.03 0.02 0.01 0.01 0.00
0.01 0.02 0.03 0.05 0.05 0.04 0.02 0.01 0.01 0.01 0.01 0.01 0.02 0.02 0.01 0.01 0.01 0.01 0.00 0.00 0.00 0.00 0.00 0.00 0.00 0.00 0.01 0.01 0.01 0.02 0.02 0.02 0.01 0.01 0.01 0.01 0.01 0.01 0.01 0.02 0.03 0.03 0.03 0.03 0.04 0.04 0.02 0.01 0.01
0.01 0.01 0.03 0.06 0.05 0.04 0.03 0.02 0.01 0.01 0.01 0.02 0.01 0.01 0.01 0.01 0.01 0.01 0.01 0.00 0.00 0.00 0.00 0.00 0.00 0.01 0.01 0.01 0.01 0.02 0.02 0.02 0.02 0.01 0.01 0.01 0.01 0.01 0.01 0.01 0.02 0.04 0.04 0.03 0.03 0.04 0.03 0.02 0.02
MSLP
1012.65 1012.76 1012.84 1012.88 1012.83 1012.68 1012.46 1012.19 1011.91 1011.67 1011.50 1011.44 1011.47 1011.58 1011.74 1011.90 1012.05 1012.16 1012.23 1012.30 1012.38 1012.50 1012.69 1012.94 1013.23 1013.52 1013.78 1013.96 1014.05 1014.05 1013.97 1013.87 1013.78 1013.75 1013.79 1013.91 1014.08 1014.29 1014.49 1014.66 1014.78 1014.87 1014.93 1014.98 1015.05 1015.15 1015.27 1015.42 1015.57
1012.70 1012.75 1012.77 1012.74 1012.63 1012.44 1012.18 1011.89 1011.60 1011.36 1011.22 1011.18 1011.26 1011.42 1011.64 1011.87 1012.07 1012.24 1012.35 1012.44 1012.52 1012.65 1012.83 1013.08 1013.39 1013.72 1014.03 1014.29 1014.46 1014.53 1014.53 1014.48 1014.42 1014.39 1014.41 1014.48 1014.61 1014.75 1014.89 1015.00 1015.08 1015.12 1015.14 1015.16 1015.20 1015.28 1015.39 1015.52 1015.66
1012.81 1012.78 1012.72 1012.59 1012.41 1012.16 1011.87 1011.56 1011.28 1011.07 1010.96 1010.97 1011.10 1011.32 1011.60 1011.89 1012.15 1012.36 1012.51 1012.61 1012.71 1012.83 1013.01 1013.26 1013.58 1013.93 1014.29 1014.61 1014.86 1015.02 1015.09 1015.10 1015.09 1015.07 1015.08 1015.13 1015.21 1015.30 1015.38 1015.43 1015.46 1015.45 1015.44 1015.43 1015.44 1015.48 1015.57 1015.67 1015.79
1012.93 1012.82 1012.66 1012.44 1012.17 1011.86 1011.54 1011.23 1010.96 1010.79 1010.73 1010.80 1010.99 1011.27 1011.60 1011.95 1012.26 1012.51 1012.69 1012.82 1012.92 1013.05 1013.22 1013.47 1013.79 1014.17 1014.57 1014.94 1015.25 1015.49 1015.64 1015.72 1015.75 1015.76 1015.78 1015.81 1015.86 1015.91 1015.95 1015.96 1015.94 1015.90 1015.85 1015.80 1015.78 1015.79 1015.84 1015.91 1016.00
1012.99 1012.81 1012.56 1012.25 1011.91 1011.55 1011.21 1010.91 1010.68 1010.56 1010.56 1010.68 1010.93 1011.26 1011.64 1012.03 1012.38 1012.67 1012.88 1013.04 1013.16 1013.30 1013.47 1013.72 1014.05 1014.44 1014.86 1015.27 1015.63 1015.93 1016.15 1016.29 1016.38 1016.43 1016.47 1016.51 1016.54 1016.57 1016.58 1016.56 1016.51 1016.44 1016.36 1016.28 1016.23 1016.20 1016.20 1016.23 1016.27
1012.95 1012.71 1012.39 1012.02 1011.63 1011.25 1010.91 1010.63 1010.45 1010.38 1010.44 1010.62 1010.91 1011.28 1011.70 1012.12 1012.50 1012.82 1013.07 1013.25 1013.41 1013.56 1013.75 1014.01 1014.34 1014.74 1015.17 1015.61 1016.01 1016.35 1016.62 1016.81 1016.95 1017.04 1017.11 1017.17 1017.21 1017.24 1017.24 1017.21 1017.15 1017.05 1016.95 1016.84 1016.74 1016.67 1016.61 1016.58 1016.57
1012.79 1012.52 1012.16 1011.76 1011.35 1010.98 1010.66 1010.42 1010.29 1010.28 1010.39 1010.61 1010.93 1011.33 1011.76 1012.20 1012.60 1012.95 1013.23 1013.45 1013.64 1013.82 1014.04 1014.32 1014.66 1015.06 1015.50 1015.95 1016.37 1016.73 1017.03 1017.27 1017.44 1017.58 1017.68 1017.76 1017.82 1017.86 1017.87 1017.83 1017.76 1017.66 1017.53 1017.39 1017.25 1017.13 1017.02 1016.93 1016.85
1012.54 1012.26 1011.90 1011.50 1011.11 1010.76 1010.49 1010.30 1010.23 1010.27 1010.41 1010.66 1010.99 1011.39 1011.82 1012.26 1012.67 1013.03 1013.34 1013.60 1013.83 1014.07 1014.32 1014.63 1014.99 1015.40 1015.84 1016.29 1016.71 1017.09 1017.41 1017.66 1017.86 1018.02 1018.15 1018.25 1018.34 1018.39 1018.40 1018.38 1018.31 1018.19 1018.04 1017.88 1017.70 1017.53 1017.36 1017.21 1017.07
1012.25 1011.99 1011.65 1011.28 1010.93 1010.63 1010.41 1010.28 1010.25 1010.33 1010.49 1010.75 1011.07 1011.45 1011.86 1012.28 1012.69 1013.06 1013.39 1013.70 1013.98 1014.26 1014.56 1014.91 1015.29 1015.72 1016.17 1016.62 1017.04 1017.41 1017.73 1017.99 1018.21 1018.38 1018.52 1018.63 1018.73 1018.79 1018.81 1018.79 1018.71 1018.59 1018.43 1018.23 1018.02 1017.81 1017.60 1017.39 1017.20
1011.99 1011.75 1011.45 1011.13 1010.83 1010.59 1010.42 1010.34 1010.35 1010.44 1010.61 1010.85 1011.15 1011.50 1011.87 1012.27 1012.66 1013.03 1013.39 1013.72 1014.05 1014.39 1014.74 1015.13 1015.55 1016.00 1016.46 1016.91 1017.33 1017.70 1018.01 1018.27 1018.48 1018.65 1018.79 1018.91 1018.99 1019.05 1019.07 1019.04 1018.96 1018.83 1018.65 1018.44 1018.20 1017.96 1017.71 1017.47 1017.25
1011.78 1011.57 1011.31 1011.05 1010.81 1010.62 1010.50 1010.45 1010.48 1010.57 1010.73 1010.94 1011.19 1011.50 1011.83 1012.19 1012.56 1012.93 1013.30 1013.66 1014.03 1014.41 1014.82 1015.25 1015.72 1016.20 1016.68 1017.14 1017.56 1017.93 1018.24 1018.49 1018.69 1018.85 1018.98 1019.08 1019.16 1019.20 1019.20 1019.16 1019.06 1018.92 1018.72 1018.50 1018.25 1017.98 1017.72 1017.46 1017.22
1011.63 1011.45 1011.23 1011.02 1010.82 1010.68 1010.59 1010.56 1010.58 1010.66 1010.79 1010.96 1011.17 1011.43 1011.72 1012.04 1012.39 1012.75 1013.12 1013.50 1013.90 1014.32 1014.78 1015.26 1015.76 1016.28 1016.80 1017.28 1017.73 1018.11 1018.42 1018.67 1018.86 1019.01 1019.12 1019.20 1019.25 1019.27 1019.25 1019.18 1019.07 1018.91 1018.70 1018.46 1018.20 1017.93 1017.66 1017.39 1017.15
1011.50 1011.34 1011.16 1010.98 1010.83 1010.71 1010.64 1010.61 1010.62 1010.67 1010.75 1010.89 1011.06 1011.27 1011.53 1011.82 1012.14 1012.48 1012.85 1013.24 1013.66 1014.11 1014.59 1015.11 1015.67 1016.23 1016.79 1017.32 1017.79 1018.20 1018.54 1018.80 1019.00 1019.14 1019.23 1019.29 1019.32 1019.31 1019.26 1019.17 1019.04 1018.86 1018.64 1018.39 1018.12 1017.84 1017.57 1017.30 1017.05
1011.33 1011.19 1011.04 1010.89 1010.77 1010.67 1010.59 1010.55 1010.54 1010.56 1010.62 1010.71 1010.85 1011.03 1011.26 1011.52 1011.82 1012.15 1012.50 1012.88 1013.30 1013.76 1014.27 1014.82 1015.41 1016.03 1016.64 1017.22 1017.75 1018.21 1018.59 1018.88 1019.10 1019.25 1019.35 1019.40 1019.41 1019.38 1019.31 1019.20 1019.04 1018.84 1018.61 1018.35 1018.07 1017.78 1017.49 1017.22 1016.96
1011.08 1010.96 1010.84 1010.72 1010.62 1010.54 1010.46 1010.41 1010.37 1010.36 1010.39 1010.46 1010.58 1010.74 1010.95 1011.19 1011.47 1011.77 1012.10 1012.47 1012.87 1013.32 1013.83 1014.40 1015.03 1015.69 1016.35 1017.00 1017.60 1018.13 1018.56 1018.91 1019.17 1019.35 1019.47 1019.52 1019.53 1019.50 1019.42 1019.29 1019.12 1018.91 1018.66 1018.38 1018.08 1017.77 1017.46 1017.16 1016.88
1010.72 1010.63 1010.55 1010.48 1010.41 1010.34 1010.27 1010.21 1010.15 1010.13 1010.13 1010.19 1010.29 1010.44 1010.64 1010.87 1011.13 1011.41 1011.71 1012.03 1012.40 1012.83 1013.33 1013.91 1014.55 1015.25 1015.97 1016.68 1017.35 1017.95 1018.46 1018.87 1019.19 1019.42 1019.58 1019.66 1019.69 1019.66 1019.59 1019.46 1019.28 1019.06 1018.79 1018.49 1018.17 1017.83 1017.48 1017.14 1016.82
1010.29 1010.25 1010.23 1010.21 1010.18 1010.14 1010.09 1010.02 1009.96 1009.92 1009.91 1009.96 1010.06 1010.21 1010.40 1010.62 1010.85 1011.10 1011.36 1011.64 1011.97 1012.36 1012.84 1013.40 1014.05 1014.76 1015.52 1016.29 1017.02 1017.69 1018.27 1018.76 1019.15 1019.44 1019.65 1019.78 1019.85 1019.85 1019.80 1019.68 1019.51 1019.28 1019.01 1018.68 1018.33 1017.95 1017.56 1017.17 1016.80
1009.85 1009.88 1009.93 1009.98 1010.01 1010.01 1009.97 1009.91 1009.85 1009.80 1009.79 1009.83 1009.93 1010.08 1010.26 1010.47 1010.68 1010.89 1011.11 1011.35 1011.62 1011.97 1012.40 1012.94 1013.57 1014.29 1015.07 1015.87 1016.64 1017.37 1018.01 1018.57 1019.02 1019.38 1019.65 1019.84 1019.96 1020.01 1020.00 1019.91 1019.76 1019.54 1019.26 1018.93 1018.55 1018.13 1017.69 1017.25 1016.82
1009.49 1009.60 1009.74 1009.86 1009.95 1009.99 1009.97 1009.92 1009.86 1009.81 1009.79 1009.83 1009.92 1010.07 1010.25 1010.44 1010.63 1010.81 1010.99 1011.17 1011.40 1011.70 1012.08 1012.58 1013.19 1013.89 1014.66 1015.46 1016.26 1017.01 1017.69 1018.29 1018.79 1019.21 1019.55 1019.80 1019.99 1020.10 1020.14 1020.10 1019.99 1019.79 1019.53 1019.19 1018.80 1018.36 1017.89 1017.40 1016.92
1009.28 1009.47 1009.68 1009.87 1010.01 1010.09 1010.09 1010.05 1009.98 1009.92 1009.90 1009.93 1010.03 1010.17 1010.34 1010.52 1010.70 1010.85 1010.99 1011.14 1011.32 1011.57 1011.91 1012.36 1012.93 1013.60 1014.33 1015.11 1015.89 1016.63 1017.32 1017.94 1018.48 1018.94 1019.32 1019.64 1019.89 1020.07 1020.18 1020.20 1020.14 1019.99 1019.76 1019.44 1019.06 1018.62 1018.14 1017.63 1017.13
1009.25 1009.51 1009.78 1010.01 1010.19 1010.28 1010.29 1010.24 1010.16 1010.09 1010.06 1010.09 1010.18 1010.32 1010.49 1010.67 1010.83 1010.97 1011.10 1011.22 1011.37 1011.58 1011.88 1012.29 1012.81 1013.43 1014.11 1014.84 1015.57 1016.27 1016.94 1017.54 1018.08 1018.56 1018.99 1019.36 1019.67 1019.92 1020.10 1020.20 1020.21 1020.12 1019.94 1019.67 1019.32 1018.91 1018.45 1017.96 1017.46
1009.40 1009.69 1009.98 1010.23 1010.40 1010.48 1010.47 1010.40 1010.30 1010.22 1010.18 1010.21 1010.30 1010.45 1010.64 1010.83 1011.00 1011.14 1011.26 1011.38 1011.51 1011.71 1011.98 1012.35 1012.82 1013.37 1013.99 1014.64 1015.30 1015.95 1016.55 1017.12 1017.64 1018.12 1018.57 1018.98 1019.35 1019.66 1019.92 1020.09 1020.18 1020.16 1020.06 1019.85 1019.57 1019.22 1018.82 1018.38 1017.92
1009.68 1009.97 1010.25 1010.46 1010.60 1010.63 1010.57 1010.46 1010.33 1010.23 1010.19 1010.23 1010.35 1010.52 1010.73 1010.95 1011.14 1011.30 1011.44 1011.57 1011.71 1011.89 1012.15 1012.48 1012.91 1013.40 1013.95 1014.52 1015.09 1015.65 1016.19 1016.70 1017.18 1017.65 1018.10 1018.53 1018.95 1019.32 1019.65 1019.90 1020.06 1020.14 1020.11 1019.99 1019.80 1019.53 1019.21 1018.85 1018.47
1010.06 1010.30 1010.52 1010.67 1010.72 1010.67 1010.55 1010.39 1010.23 1010.12 1010.09 1010.15 1010.30 1010.51 1010.76 1011.01 1011.25 1011.44 1011.61 1011.76 1011.91 1012.10 1012.35 1012.66 1013.03 1013.47 1013.94 1014.43 1014.92 1015.40 1015.85 1016.29 1016.73 1017.17 1017.62 1018.07 1018.51 1018.94 1019.33 1019.65 1019.89 1020.04 1020.11 1020.08 1019.98 1019.81 1019.59 1019.33 1019.04
1010.51 1010.68 1010.80 1010.84 1010.78 1010.63 1010.43 1010.21 1010.02 1009.91 1009.89 1009.99 1010.19 1010.45 1010.75 1011.06 1011.34 1011.57 1011.77 1011.94 1012.11 1012.30 1012.54 1012.82 1013.16 1013.55 1013.95 1014.36 1014.77 1015.16 1015.54 1015.92 1016.31 1016.71 1017.15 1017.60 1018.07 1018.54 1018.97 1019.35 1019.66 1019.89 1020.03 1020.09 1020.08 1020.01 1019.90 1019.75 1019.57
1011.05 1011.12 1011.12 1011.03 1010.84 1010.58 1010.29 1010.01 1009.80 1009.69 1009.71 1009.85 1010.10 1010.43 1010.79 1011.14 1011.45 1011.72 1011.94 1012.12 1012.29 1012.48 1012.70 1012.96 1013.26 1013.59 1013.93 1014.27 1014.61 1014.93 1015.24 1015.56 1015.90 1016.28 1016.70 1017.15 1017.64 1018.12 1018.59 1019.02 1019.38 1019.66 1019.87 1020.00 1020.08 1020.10 1020.09 1020.04 1019.97
1011.71 1011.67 1011.55 1011.32 1011.00 1010.63 1010.25 1009.92 1009.69 1009.59 1009.64 1009.83 1010.14 1010.52 1010.93 1011.31 1011.65 1011.93 1012.15 1012.33 1012.48 1012.65 1012.83 1013.05 1013.31 1013.59 1013.87 1014.15 1014.42 1014.68 1014.94 1015.21 1015.51 1015.86 1016.26 1016.71 1017.19 1017.69 1018.18 1018.63 1019.03 1019.36 1019.61 1019.81 1019.95 1020.05 1020.12 1020.17 1020.19
1012.52 1012.39 1012.15 1011.79 1011.36 1010.88 1010.43 1010.05 1009.81 1009.72 1009.80 1010.04 1010.39 1010.81 1011.24 1011.64 1011.98 1012.24 1012.44 1012.58 1012.69 1012.81 1012.95 1013.11 1013.31 1013.54 1013.76 1013.99 1014.21 1014.42 1014.63 1014.86 1015.13 1015.45 1015.83 1016.26 1016.74 1017.23 1017.73 1018.19 1018.61 1018.96 1019.25 1019.49 1019.68 1019.84 1019.98 1020.10 1020.21
1013.50 1013.30 1012.96 1012.50 1011.97 1011.41 1010.89 1010.48 1010.22 1010.15 1010.25 1010.51 1010.88 1011.31 1011.74 1012.13 1012.44 1012.66 1012.80 1012.88 1012.93 1012.98 1013.05 1013.15 1013.29 1013.45 1013.62 1013.79 1013.96 1014.13 1014.30 1014.50 1014.73 1015.02 1015.37 1015.79 1016.24 1016.73 1017.22 1017.68 1018.11 1018.47 1018.79 1019.05 1019.28 1019.48 1019.67 1019.85 1020.03
1014.60 1014.34 1013.93 1013.40 1012.79 1012.18 1011.62 1011.18 1010.91 1010.83 1010.93 1011.19 1011.56 1011.97 1012.38 1012.72 1012.98 1013.14 1013.21 1013.21 1013.18 1013.15 1013.14 1013.17 1013.24 1013.34 1013.45 1013.58 1013.70 1013.83 1013.96 1014.13 1014.33 1014.59 1014.91 1015.29 1015.72 1016.18 1016.66 1017.11 1017.54 1017.91 1018.24 1018.53 1018.78 1019.01 1019.23 1019.46 1019.69
Thickness
5693 5696 5699 5698 5692 5689 5694 5702 5705 5703 5706 5711 5712 5714 5716 5716 5713 5709 5711 5716 5716 5715 5714 5711 5710 5710 5709 5709 5708 5708 5708 5707 5708 5707 5707 5707 5707 5707 5707 5707 5707 5707 5707 5707 5707 5707 5707 5707 5707
5688 5691 5691 5689 5684 5684 5693 5701 5698 5702 5705 5705 5705 5707 5709 5711 5711 5709 5708 5709 5710 5710 5709 5707 5705 5705 5705 5704 5703 5703 5703 5703 5703 5703 5703 5703 5703 5703 5703 5703 5702 5702 5702 5702 5702 5702 5702 5702 5702
5683 5685 5683 5680 5679 5689 5694 5696 5697 5698 5698 5699 5699 5702 5704 5705 5705 5704 5705 5704 5705 5704 5704 5702 5700 5700 5699 5699 5698 5697 5698 5698 5698 5699 5698 5698 5698 5698 5697 5697 5697 5697 5697 5697 5697 5697 5697 5696 5696
5677 5675 5674 5672 5677 5686 5691 5693 5691 5690 5691 5693 5695 5695 5697 5697 5699 5700 5699 5699 5699 5699 5698 5696 5694 5694 5693 5693 5692 5692 5692 5692 5693 5693 5693 5693 5693 5693 5692 5692 5692 5692 5692 5692 5692 5692 5691 5691 5691
5670 5668 5663 5664 5674 5682 5685 5685 5684 5686 5687 5689 5689 5691 5691 5690 5692 5692 5692 5693 5693 5693 5692 5690 5688 5688 5687 5687 5686 5686 5686 5687 5687 5687 5687 5687 5687 5687 5687 5686 5686 5686 5686 5686 5686 5686 5686 5685 5685
5659 5661 5658 5663 5671 5675 5677 5677 5678 5680 5683 5682 5682 5684 5686 5685 5685 5685 5686 5686 5686 5686 5685 5684 5681 5681 5680 5680 5680 5679 5680 5680 5681 5681 5681 5681 5680 5681 5681 5681 5680 5680 5680 5680 5680 5680 5680 5679 5679
5652 5651 5655 5663 5664 5667 5670 5672 5672 5675 5676 5677 5679 5678 5681 5679 5679 5679 5679 5679 5679 5679 5678 5677 5676 5674 5673 5673 5673 5673 5673 5673 5674 5674 5675 5674 5674 5674 5674 5674 5674 5674 5674 5674 5674 5674 5674 5673 5673
5647 5645 5646 5653 5656 5660 5665 5663 5665 5667 5670 5673 5672 5673 5675 5674 5672 5671 5671 5671 5671 5671 5671 5670 5669 5668 5668 5667 5666 5665 5666 5666 5666 5667 5667 5668 5667 5667 5667 5668 5668 5668 5668 5667 5667 5667 5667 5667 5666
5636 5633 5641 5647 5649 5654 5655 5654 5657 5659 5661 5661 5664 5668 5667 5666 5664 5662 5662 5663 5663 5664 5664 5663 5663 5662 5661 5660 5659 5658 5658 5658 5659 5659 5660 5660 5661 5661 5661 5661 5661 5661 5661 5661 5660 5660 5660 5660 5660
5625 5628 5639 5643 5645 5645 5645 5647 5650 5650 5651 5652 5655 5656 5656 5656 5656 5657 5657 5658 5658 5658 5657 5657 5656 5655 5654 5654 5652 5652 5652 5652 5652 5653 5653 5654 5655 5655 5654 5654 5654 5654 5654 5654 5654 5654 5654 5654 5655
5619 5624 5630 5630 5632 5633 5634 5637 5641 5642 5645 5650 5651 5651 5648 5648 5650 5652 5653 5654 5653 5653 5651 5650 5649 5648 5647 5647 5646 5646 5646 5646 5646 5647 5647 5647 5647 5647 5647 5648 5648 5648 5647 5648 5648 5648 5648 5648 5648
5610 5615 5618 5621 5621 5621 5624 5628 5630 5635 5643 5647 5647 5646 5643 5643 5645 5647 5648 5648 5647 5645 5644 5643 5642 5641 5640 5640 5640 5639 5639 5639 5640 5639 5640 5641 5641 5640 5640 5641 5641 5641 5641 5641 5642 5643 5643 5642 5642
5601 5605 5607 5609 5609 5612 5614 5618 5622 5629 5635 5636 5636 5636 5636 5637 5640 5641 5641 5641 5640 5638 5637 5636 5635 5635 5634 5633 5633 5633 5633 5633 5633 5633 5633 5633 5634 5633 5633 5633 5633 5634 5633 5634 5635 5636 5636 5636 5636
5595 5596 5598 5599 5601 5603 5604 5611 5613 5623 5625 5626 5626 5628 5630 5631 5632 5633 5633 5633 5633 5632 5631 5629 5628 5628 5627 5627 5626 5626 5625 5625 5626 5626 5626 5626 5626 5626 5625 5625 5625 5626 5626 5626 5627 5628 5628 5628 5628
5583 5584 5589 5592 5593 5595 5595 5602 5611 5617 5616 5616 5619 5621 5622 5624 5625 5627 5628 5628 5627 5626 5625 5623 5622 5621 5621 5620 5619 5618 5618 5618 5618 5618 5618 5618 5618 5618 5618 5618 5618 5618 5618 5618 5619 5620 5620 5620 5620
5574 5577 5582 5588 5585 5585 5584 5601 5611 5609 5607 5609 5612 5614 5615 5617 5618 5620 5621 5620 5620 5619 5618 5617 5615 5614 5614 5613 5612 5611 5611 5611 5611 5611 5610 5610 5610 5610 5610 5611 5611 5610 5611 5611 5612 5613 5612 5612 5613
5566 5572 5578 5579 5576 5576 5578 5593 5602 5598 5597 5601 5605 5607 5608 5610 5611 5612 5614 5614 5613 5613 5612 5611 5609 5608 5607 5606 5605 5604 5604 5604 5604 5604 5603 5603 5602 5602 5603 5603 5602 5603 5603 5604 5604 5605 5605 5605 5604
5566 5568 5569 5571 5569 5566 5570 5583 5590 5589 5587 5593 5597 5600 5602 5604 5606 5606 5606 5606 5605 5605 5605 5604 5603 5602 5600 5598 5597 5597 5597 5597 5596 5596 5596 5596 5595 5595 5594 5594 5594 5595 5596 5596 5597 5597 5596 5596 5596
5552 5553 5557 5561 5558 5555 5563 5573 5581 5582 5581 5585 5590 5593 5595 5597 5599 5598 5598 5598 5598 5598 5598 5598 5597 5596 5594 5593 5592 5591 5591 5590 5589 5589 5589 5588 5588 5587 5587 5587 5587 5587 5588 5588 5588 5588 5588 5587 5587
5536 5539 5546 5549 5546 5546 5553 5564 5574 5575 5577 5579 5582 5585 5587 5589 5589 5590 5590 5591 5591 5591 5590 5591 5591 5590 5589 5587 5586 5586 5585 5583 5582 5581 5581 5581 5581 5580 5580 5580 5580 5580 5580 5580 5580 5580 5580 5579 5578
5526 5530 5535 5536 5535 5536 5539 5558 5569 5571 5570 5570 5572 5575 5578 5579 5581 5583 5583 5584 5584 5584 5584 5585 5585 5584 5582 5580 5578 5576 5575 5574 5574 5574 5574 5574 5574 5573 5573 5573 5572 5573 5573 5572 5572 5572 5572 5572 5570
5519 5522 5520 5520 5523 5533 5533 5545 5566 5564 5564 5564 5565 5567 5570 5571 5572 5574 5576 5577 5578 5578 5577 5577 5577 5576 5574 5573 5572 5572 5572 5572 5571 5569 5568 5567 5566 5565 5565 5565 5565 5565 5565 5565 5565 5564 5564 5563 5562
5509 5508 5509 5511 5514 5518 5526 5527 5558 5557 5559 5560 5560 5560 5562 5562 5563 5565 5567 5568 5569 5569 5569 5569 5568 5568 5566 5565 5565 5565 5566 5566 5564 5562 5561 5560 5559 5558 5557 5557 5557 5557 5557 5557 5557 5557 5555 5555 5555
5496 5498 5501 5505 5508 5512 5528 5528 5549 5555 5554 5554 5554 5553 5553 5553 5554 5555 5557 5558 5559 5560 5560 5560 5560 5559 5558 5557 5557 5558 5559 5558 5556 5555 5554 5553 5552 5551 5550 5549 5549 5549 5550 5549 5549 5548 5547 5547 5546
5490 5494 5502 5508 5511 5524 5519 5520 5539 5547 5545 5544 5544 5545 5546 5546 5547 5548 5548 5549 5551 5552 5552 5552 5553 5552 5550 5550 5550 5551 5551 5550 5549 5549 5547 5546 5545 5545 5544 5542 5542 5542 5542 5541 5540 5540 5540 5539 5538
5486 5490 5496 5504 5517 5522 5509 5518 5536 5536 5535 5534 5534 5536 5537 5538 5539 5539 5540 5541 5542 5543 5544 5545 5545 5544 5543 5542 5542 5542 5542 5542 5542 5541 5540 5539 5539 5538 5536 5535 5535 5535 5534 5533 5532 5532 5531 5530 5529
5480 5484 5485 5486 5488 5500 5517 5521 5525 5527 5527 5526 5527 5528 5528 5529 5530 5530 5531 5532 5534 5535 5536 5537 5537 5536 5535 5534 5534 5534 5533 5533 5533 5532 5532 5531 5531 5529 5528 5527 5527 5526 5525 5525 5524 5524 5523 5522 5521
5474 5477 5476 5479 5489 5505 5516 5519 5527 5521 5521 5521 5520 5520 5521 5521 5522 5522 5523 5524 5525 5526 5527 5527 5527 5527 5527 5526 5526 5526 5525 5525 5524 5523 5523 5523 5522 5521 5520 5519 5519 5518 5517 5516 5515 5516 5515 5514 5512
5463 5464 5469 5476 5479 5492 5504 5519 5517 5513 5512 5511 5513 5513 5513 5513 5514 5514 5516 5516 5517 5518 5518 5518 5519 5518 5518 5517 5517 5517 5517 5516 5515 5515 5515 5514 5513 5512 5511 5511 5510 5510 5509 5508 5507 5507 5506 5505 5504
5459 5464 5464 5469 5470 5473 5487 5506 5505 5503 5503 5502 5503 5504 5504 5504 5505 5506 5507 5509 5510 5510 5511 5511 5511 5510 5509 5509 5508 5508 5507 5507 5506 5506 5506 5505 5504 5503 5502 5502 5501 5501 5501 5500 5500 5499 5497 5497 5495